Wind_Speed
12 13 14 14 15 16 17 18 18 19 20 20 20 21 21 21 22 22 23 23 23 24 24 25 24 24 24 24 24 24 24 24 24 23 23 23 23 24 24 24 25 25 25
13 14 14 15 16 17 18 19 19 21 22 22 23 23 24 24 25 25 26 26 26 27 27 28 28 27 27 27 27 27 27 27 27 27 26 26 26 26 26 27 27 27 28
12 13 14 15 16 17 18 20 21 22 23 24 25 26 27 27 28 28 29 29 29 29 29 30 30 30 30 30 30 30 30 30 29 29 29 29 29 30 30 30 30 30 30
12 13 14 15 16 18 19 21 22 24 24 26 26 28 29 30 31 31 31 32 32 32 32 31 31 32 32 33 33 33 33 33 33 32 33 33 33 34 34 34 34 35 35
13 14 16 17 18 19 21 23 24 26 26 27 28 29 30 32 33 33 33 33 34 34 34 34 34 35 35 35 36 36 36 36 36 37 37 37 37 38 39 40 39 39 38
15 16 18 18 18 19 22 23 25 27 29 29 30 31 32 34 34 35 35 35 36 37 37 37 38 38 38 38 38 38 39 39 40 41 41 41 41 42 43 44 43 43 42
18 19 20 21 21 22 23 25 27 28 30 31 31 33 33 34 35 35 36 37 38 38 39 40 40 40 41 41 41 42 42 43 44 45 45 45 46 46 47 47 47 47 46
21 22 23 23 23 25 27 28 30 31 32 34 35 36 36 36 37 36 37 38 39 40 41 42 42 43 43 44 44 45 46 47 48 49 49 49 50 50 51 52 52 52 51
22 23 24 25 27 27 29 30 31 32 33 34 35 35 35 37 38 38 39 40 40 41 42 42 43 44 45 46 47 49 49 50 52 53 54 54 55 55 56 57 57 57 56
25 26 27 28 29 30 31 32 33 33 33 35 35 35 35 37 38 39 39 40 41 42 43 44 46 47 49 50 51 52 54 55 56 58 58 59 60 60 61 63 63 63 63
27 28 29 30 31 32 32 32 33 33 34 34 35 35 36 37 39 40 42 43 44 45 46 48 50 52 53 55 57 58 60 61 62 63 64 64 65 66 67 68 69 69 69
29 30 31 32 32 32 32 32 33 34 34 35 36 37 38 39 41 43 44 46 47 49 51 52 54 56 58 60 62 64 65 67 68 69 69 70 71 71 72 72 72 73 73
31 31 32 32 33 33 33 34 35 36 37 37 38 39 41 42 44 46 48 50 52 54 56 58 59 61 63 64 66 68 69 70 71 72 72 73 73 74 74 74 74 74 74
31 32 33 33 34 34 35 36 37 38 39 40 41 43 45 47 49 50 52 54 57 59 60 62 64 65 66 67 68 68 69 69 70 71 71 71 72 72 72 72 72 73 73
32 33 33 34 35 36 37 38 39 40 42 44 45 47 49 51 53 55 56 58 60 62 63 64 65 65 65 65 65 66 66 66 65 65 64 64 64 64 64 65 66 67 68
33 33 34 35 36 38 39 40 42 43 45 47 48 50 52 54 55 57 58 59 60 60 60 60 60 60 60 60 60 59 59 59 59 58 57 56 56 55 55 56 58 59 60
34 35 36 37 38 39 41 43 45 46 48 49 51 53 54 55 56 57 57 57 57 57 56 55 54 54 53 52 52 51 51 50 49 48 48 48 47 47 47 47 48 50 52
35 36 37 38 39 41 43 45 46 48 50 51 53 54 55 56 56 56 55 54 53 52 51 50 48 47 46 45 44 42 40 40 40 40 40 40 40 41 41 41 42 43 44
36 38 39 40 42 44 46 48 49 51 52 53 53 54 54 54 53 51 50 48 47 45 44 43 41 40 39 38 36 35 35 34 34 33 34 34 35 35 35 36 36 37 38
38 39 41 43 45 47 49 50 51 51 52 52 52 51 50 49 47 45 44 42 41 39 38 36 35 35 34 32 31 31 30 30 30 31 31 31 31 31 31 31 32 32 33
41 43 45 46 48 49 50 50 50 50 49 49 49 47 46 44 42 40 38 37 35 34 33 32 31 30 29 27 27 27 27 28 28 28 27 27 27 27 27 27 28 28 28
44 46 47 48 48 48 48 48 47 46 46 45 44 42 40 38 36 34 33 32 31 30 29 27 27 27 26 25 25 25 25 25 25 24 24 24 24 24 24 24 24 23 23
45 46 47 46 46 46 45 44 43 43 42 41 39 37 35 32 31 30 28 27 26 26 25 25 24 24 23 23 23 23 22 22 22 22 22 22 22 23 22 21 20 19 19
45 45 44 44 44 43 42 41 40 39 37 35 34 32 30 28 27 25 24 24 23 23 22 21 21 21 21 21 21 22 22 21 21 21 21 21 21 20 20 19 18 18 17
42 42 42 41 40 39 38 36 35 33 32 30 29 27 25 24 23 22 21 21 20 20 20 20 19 19 20 20 21 21 21 21 20 20 20 20 20 19 18 17 17 16 16
39 39 37 36 35 34 32 31 30 29 27 26 24 23 22 21 20 19 19 19 18 19 19 19 19 20 20 20 20 20 20 20 20 20 20 19 19 18 17 17 16 16 15
Wind_Direction
219 220 222 226 231 235 237 238 240 244 247 249 251 253 255 258 259 261 263 265 266 268 270 272 274 275 277 278 279 280 280 280 280 278 277 276 275 274 274 275 276 276 276
229 229 231 237 242 245 245 246 248 250 252 253 255 256 257 258 260 261 263 264 266 268 270 271 273 274 275 276 277 277 278 278 279 279 278 277 276 275 274 273 273 272 272
238 236 241 245 247 248 250 253 254 255 255 255 256 257 258 260 261 262 264 264 265 267 269 271 272 272 273 273 274 275 276 277 277 278 278 278 277 276 275 274 272 271 271
247 248 250 251 255 255 257 258 260 260 259 259 261 261 260 261 262 263 264 266 266 267 268 270 271 272 273 273 273 274 274 275 276 277 277 278 278 277 276 275 273 273 271
257 258 257 259 260 260 262 265 265 264 266 267 266 266 267 266 266 265 265 267 268 268 269 270 270 271 272 273 274 274 275 275 276 276 276 275 276 276 275 274 273 272 272
267 268 263 267 270 271 270 274 275 272 272 274 272 273 272 270 271 270 269 269 269 270 270 270 270 271 271 272 273 274 274 275 275 275 275 275 274 273 273 273 272 271 271
279 281 278 278 278 280 282 282 281 280 279 278 276 277 275 273 274 274 273 272 273 272 271 271 270 270 270 271 272 273 273 274 274 274 274 274 273 273 272 272 272 271 270
285 286 288 289 289 288 287 287 286 283 281 280 280 280 276 274 274 275 276 276 277 276 275 273 272 272 271 271 272 272 272 273 273 273 273 273 273 273 273 272 271 271 270
288 290 290 290 289 289 289 289 288 287 285 283 283 281 278 277 277 277 277 277 277 277 276 275 276 276 275 275 274 274 273 273 273 273 273 273 273 273 273 272 271 270 269
289 290 291 292 292 291 290 290 289 287 287 286 285 282 280 279 277 277 278 277 278 279 279 278 278 278 277 276 276 276 275 274 274 274 275 274 274 273 273 272 271 271 270
289 290 291 292 292 291 291 291 289 287 287 287 285 284 282 281 280 279 280 280 280 281 281 280 280 279 279 278 278 278 277 277 276 276 275 275 274 273 273 272 271 270 270
288 289 290 291 290 290 289 288 287 287 286 286 285 285 285 285 285 284 283 283 283 283 282 282 281 281 281 280 280 280 279 278 278 277 276 275 274 273 272 271 270 270 269
287 288 289 289 288 288 288 288 288 288 288 288 288 288 288 288 287 287 286 286 285 285 284 283 283 282 282 281 281 280 280 279 278 278 277 276 274 273 272 271 270 269 268
288 289 289 288 288 288 288 288 288 289 289 290 290 290 290 289 289 289 289 288 287 287 286 286 285 284 284 283 282 281 280 280 279 278 278 277 275 274 272 271 270 268 267
288 288 288 289 289 289 289 290 290 290 291 291 291 292 292 292 291 291 291 290 289 289 288 288 287 287 286 285 284 283 282 282 281 281 280 278 277 275 274 272 271 269 268
289 290 289 290 290 290 290 291 291 291 292 292 293 293 294 294 294 294 293 292 291 291 290 290 289 289 288 287 286 285 284 283 283 282 282 281 279 278 276 275 273 271 270
291 291 291 292 292 292 293 293 294 294 294 295 295 295 295 295 295 295 295 294 293 293 293 292 292 291 290 289 289 288 287 286 285 285 284 283 282 281 280 278 276 274 272
292 292 292 293 293 294 294 295 295 295 296 296 296 296 296 296 296 296 295 295 295 295 295 294 294 293 293 292 292 291 290 290 289 288 288 287 286 285 284 282 280 278 276
293 293 293 294 294 295 295 296 296 296 296 296 296 296 296 296 296 296 296 296 297 296 296 296 296 296 295 295 295 295 294 294 293 292 291 290 290 289 288 286 285 283 281
295 295 295 295 295 296 296 296 296 297 297 297 297 297 297 297 297 297 297 298 299 298 298 298 299 299 299 298 298 298 298 298 296 295 295 295 294 294 293 290 288 286 284
296 296 296 297 297 297 297 298 298 298 298 298 298 298 298 297 297 297 298 299 300 299 300 300 301 301 301 301 301 302 303 302 301 300 300 300 299 299 298 297 295 292 290
297 298 298 298 298 299 299 299 299 299 299 299 299 299 299 299 299 299 299 300 300 300 302 302 302 302 302 302 303 305 306 307 306 306 305 305 304 304 304 302 300 297 295
298 299 299 300 300 300 300 301 301 301 301 300 300 301 301 300 300 301 301 302 302 303 304 306 306 306 306 307 308 309 310 310 309 309 310 309 308 308 308 306 305 302 301
300 300 301 301 301 302 302 302 302 303 303 302 302 301 301 301 301 302 304 305 306 308 309 311 311 311 312 312 313 313 314 314 314 314 314 314 313 312 313 311 309 307 302
301 301 302 302 303 303 304 304 304 304 304 303 303 303 302 302 302 303 306 308 309 311 313 314 315 316 317 318 319 318 318 318 318 319 319 317 316 314 314 314 312 310 307
303 304 304 305 305 305 306 306 306 306 305 305 305 305 303 302 303 305 307 309 311 313 315 316 317 318 320 321 320 321 322 321 321 322 322 322 321 320 318 317 315 313 309
Height
5846 5848 5849 5851 5852 5853 5854 5855 5856 5857 5857 5857 5858 5858 5858 5858 5858 5858 5858 5857 5857 5856 5856 5855 5854 5854 5852 5852 5851 5850 5849 5848 5848 5848 5847 5846 5845 5844 5844 5843 5842 5841 5841
5844 5845 5847 5848 5849 5850 5851 5852 5852 5852 5852 5852 5852 5852 5852 5852 5852 5852 5851 5850 5850 5849 5848 5848 5847 5846 5845 5844 5843 5842 5841 5840 5840 5839 5838 5838 5837 5836 5836 5835 5834 5833 5832
5841 5842 5843 5844 5845 5846 5847 5847 5847 5847 5846 5846 5846 5846 5845 5845 5844 5844 5843 5843 5842 5841 5840 5839 5838 5838 5837 5835 5834 5833 5832 5831 5830 5830 5829 5828 5827 5826 5826 5825 5825 5824 5824
5837 5838 5839 5839 5840 5841 5841 5841 5840 5840 5839 5838 5838 5837 5837 5837 5836 5835 5835 5834 5833 5832 5831 5830 5829 5828 5827 5826 5825 5824 5823 5822 5821 5820 5819 5818 5817 5816 5815 5814 5814 5813 5813
5832 5833 5834 5834 5834 5834 5834 5833 5832 5831 5831 5831 5830 5830 5828 5828 5827 5826 5825 5824 5824 5823 5822 5821 5819 5818 5817 5816 5815 5814 5812 5812 5811 5810 5809 5807 5806 5804 5803 5802 5802 5802 5801
5827 5827 5827 5827 5827 5827 5826 5825 5825 5824 5824 5823 5822 5821 5819 5819 5818 5817 5815 5815 5814 5813 5812 5810 5809 5807 5806 5805 5804 5802 5801 5800 5799 5797 5796 5795 5794 5792 5790 5789 5789 5789 5789
5822 5821 5821 5820 5819 5819 5818 5818 5817 5816 5816 5815 5814 5812 5810 5809 5808 5807 5806 5805 5803 5802 5800 5799 5797 5795 5794 5793 5791 5790 5789 5787 5785 5784 5783 5782 5780 5779 5777 5776 5774 5774 5775
5816 5815 5815 5814 5813 5812 5812 5810 5809 5808 5807 5806 5804 5802 5800 5799 5798 5797 5795 5794 5792 5790 5788 5786 5784 5782 5781 5780 5778 5777 5775 5773 5771 5769 5768 5767 5765 5764 5762 5760 5759 5758 5759
5810 5809 5808 5807 5806 5805 5803 5802 5800 5798 5797 5795 5793 5791 5790 5788 5787 5785 5784 5782 5780 5778 5776 5774 5772 5770 5768 5765 5764 5762 5761 5758 5755 5753 5752 5750 5748 5746 5744 5742 5741 5740 5741
5803 5802 5801 5799 5797 5796 5794 5793 5791 5788 5787 5785 5783 5781 5779 5777 5775 5773 5772 5770 5768 5766 5763 5760 5758 5755 5753 5750 5748 5746 5744 5741 5739 5736 5734 5732 5730 5727 5724 5722 5721 5719 5720
5796 5794 5793 5791 5789 5787 5785 5783 5781 5778 5776 5774 5772 5770 5769 5767 5764 5762 5759 5757 5754 5752 5749 5746 5742 5739 5736 5733 5729 5726 5724 5721 5719 5716 5714 5712 5709 5706 5703 5700 5698 5696 5697
5788 5786 5784 5782 5780 5778 5776 5773 5771 5769 5767 5764 5762 5759 5757 5754 5751 5749 5746 5743 5739 5736 5733 5729 5725 5721 5718 5713 5709 5705 5701 5698 5696 5693 5691 5688 5685 5682 5679 5676 5674 5672 5671
5780 5778 5776 5773 5771 5769 5766 5764 5761 5759 5756 5753 5750 5747 5744 5741 5737 5734 5731 5727 5723 5719 5715 5711 5707 5702 5697 5692 5687 5682 5678 5674 5670 5668 5665 5662 5659 5656 5653 5651 5649 5646 5646
5771 5769 5766 5764 5761 5759 5756 5754 5751 5748 5745 5741 5738 5734 5731 5727 5723 5719 5714 5710 5705 5700 5695 5690 5685 5680 5675 5670 5664 5659 5654 5649 5645 5642 5638 5635 5632 5629 5626 5624 5622 5620 5620
5763 5760 5758 5755 5752 5749 5746 5743 5740 5736 5733 5729 5725 5720 5716 5711 5706 5701 5696 5691 5685 5680 5674 5668 5663 5657 5651 5646 5640 5634 5629 5624 5620 5616 5613 5610 5607 5604 5602 5599 5596 5595 5595
5753 5751 5748 5745 5741 5738 5734 5731 5727 5723 5719 5715 5710 5705 5700 5694 5688 5683 5677 5671 5664 5659 5653 5647 5641 5635 5629 5624 5618 5613 5607 5602 5598 5594 5591 5588 5585 5583 5581 5578 5574 5572 5572
5744 5741 5737 5734 5731 5727 5723 5719 5714 5709 5704 5700 5694 5689 5683 5677 5671 5665 5658 5652 5645 5639 5634 5628 5622 5616 5611 5605 5600 5595 5590 5585 5580 5577 5573 5570 5567 5564 5562 5559 5556 5553 5552
5733 5730 5727 5723 5719 5715 5711 5706 5701 5696 5690 5684 5678 5672 5666 5659 5653 5647 5641 5634 5628 5622 5616 5611 5605 5600 5595 5590 5584 5580 5575 5571 5566 5562 5559 5556 5552 5549 5547 5544 5540 5537 5535
5723 5719 5716 5711 5707 5702 5697 5692 5686 5681 5675 5669 5662 5656 5649 5643 5636 5630 5624 5619 5613 5608 5602 5596 5591 5586 5582 5577 5572 5568 5564 5559 5555 5551 5548 5544 5540 5537 5534 5530 5527 5524 5521
5712 5708 5703 5698 5693 5688 5683 5677 5671 5665 5659 5652 5646 5640 5634 5628 5622 5616 5610 5605 5600 5595 5590 5585 5580 5575 5571 5567 5563 5559 5554 5550 5546 5542 5538 5534 5530 5526 5523 5520 5516 5513 5510
5699 5694 5689 5684 5679 5673 5668 5662 5656 5649 5643 5637 5631 5625 5620 5614 5609 5604 5599 5594 5589 5584 5580 5576 5571 5567 5562 5558 5555 5551 5546 5542 5537 5533 5529 5526 5522 5518 5514 5511 5507 5504 5501
5685 5680 5675 5670 5664 5658 5652 5646 5640 5635 5629 5623 5617 5611 5606 5601 5597 5592 5588 5583 5579 5575 5571 5567 5563 5559 5555 5551 5547 5544 5539 5535 5531 5526 5522 5518 5515 5511 5507 5504 5500 5497 5493
5671 5666 5660 5655 5649 5644 5638 5632 5627 5621 5615 5610 5605 5600 5595 5591 5587 5583 5579 5575 5571 5567 5563 5560 5556 5552 5548 5544 5540 5537 5533 5529 5525 5521 5517 5513 5509 5505 5502 5498 5495 5491 5488
5657 5651 5646 5641 5635 5630 5625 5619 5614 5609 5603 5598 5594 5590 5585 5582 5578 5574 5571 5567 5564 5560 5557 5553 5550 5546 5542 5539 5535 5531 5527 5523 5519 5515 5511 5508 5504 5500 5497 5493 5490 5487 5484
5644 5638 5633 5628 5623 5618 5613 5607 5602 5598 5593 5589 5585 5581 5577 5574 5571 5568 5564 5561 5558 5555 5551 5548 5544 5541 5537 5533 5530 5526 5521 5518 5514 5510 5507 5503 5499 5496 5493 5489 5486 5484 5481
5631 5626 5621 5616 5612 5607 5602 5597 5593 5589 5585 5581 5577 5574 5570 5567 5564 5562 5559 5556 5553 5550 5546 5543 5540 5536 5533 5529 5525 5521 5517 5514 5510 5506 5502 5499 5495 5492 5489 5486 5483 5480 5478